Find KUIPER-00448

NORAD ID: 68871 Int'l Des: 2026-095H Owner: KUIP Country: US Constellation: amazon-leo operational
LEOCIRCULAR

現在のビュー

3D地球を読み込み中...

About KUIPER-00448

KUIPER-00448 (NORAD 68871) is a amazon-leo constellation satellite launched Apr 28, 2026 by KUIP of US. It operates in LEO, CIRCULAR orbit with a mass of 490.00 kg.

KUIPER-00448について

説明を読み込み中...

次回通過

Passes for default location (London). Set your location on the main map for personalized predictions.

高度履歴

Loading altitude history...

軌道要素

1 68871U 26095H 26166.91668981 -.01416713 00000-0 -71624-1 0 9997
2 68871 51.8880 249.3958 0003557 346.8166 277.1440 15.19526957 4454
Epoch: Jun 15, 2026 • Age: 8 hours

現在のステータス

高度 509.1 km
速度 7.61 km/s
衛星直下点 22.98°N, 94.19°W
打ち上げ日 Apr 28, 2026
運用期間 0.1 years
タイプ internet

技術仕様

分類 Payload
質量 490.00 kg
乾燥質量 490.00 kg
総質量 490.00 kg
長さ 1.80 m
直径 0.70 m
スパン 5.00 m
形状 Box + 2 pan
製造者 KUIP
バスタイプ Kuiper
フェーズステータス In Orbit
所有者/国 KUIP/US

Most Searched